CZN561 YBBN-YBTL

Flight info

Callsign CZN561
Flight time 1h 33m
Altitude 34000
Route BN Q67 RUNLA Q493 EMSUP/N0392F200 V308 TL
Aircraft A320/M-SDE3FGHIRWY/LB1

Departure

Time 2026-04-25 08:57
Airport Brisbane International Airport (YBBN)

Arrival

Time 2026-04-25 10:30
Airport Townsville Airport / RAAF Base Townsville (YBTL)
Time Latitude Longitude Altitude Speed Heading
2026-04-25 08:43 -27.38327 153.12280 22 ft 0 kts 289°
2026-04-25 08:50 -27.38327 153.12281 21 ft 1 kts 289°
2026-04-25 08:51 -27.38335 153.12305 21 ft 4 kts 289°
2026-04-25 08:51 -27.38344 153.12334 24 ft 4 kts 289°
2026-04-25 08:51 -27.38351 153.12356 23 ft 4 kts 276°
2026-04-25 08:51 -27.38347 153.12379 24 ft 3 kts 258°
2026-04-25 08:52 -27.38346 153.12403 23 ft 4 kts 319°
2026-04-25 08:52 -27.38367 153.12411 24 ft 4 kts 349°
2026-04-25 08:52 -27.38372 153.12412 25 ft 0 kts 349°
2026-04-25 08:54 -27.38338 153.12405 21 ft 10 kts 349°
2026-04-25 08:54 -27.38275 153.12463 21 ft 16 kts 86°
2026-04-25 08:54 -27.38196 153.12546 22 ft 17 kts 26°
2026-04-25 08:55 -27.38087 153.12608 21 ft 18 kts 26°
2026-04-25 08:55 -27.38025 153.12703 21 ft 16 kts 104°
2026-04-25 08:55 -27.37995 153.12815 21 ft 16 kts 98°
2026-04-25 08:55 -27.38046 153.12933 21 ft 18 kts 117°
2026-04-25 08:56 -27.38119 153.13045 22 ft 18 kts 168°
2026-04-25 08:56 -27.38288 153.12962 24 ft 57 kts 206°
2026-04-25 08:56 -27.38895 153.12615 21 ft 134 kts 207°
2026-04-25 08:56 -27.39883 153.12052 248 ft 173 kts 206°
2026-04-25 08:57 -27.40942 153.11448 1197 ft 169 kts 202°
2026-04-25 08:57 -27.41974 153.10853 1913 ft 168 kts 198°
2026-04-25 08:57 -27.43078 153.10225 2168 ft 188 kts 199°
2026-04-25 08:57 -27.44276 153.09540 2625 ft 196 kts 200°
2026-04-25 08:58 -27.45524 153.08821 3017 ft 212 kts 200°
2026-04-25 08:58 -27.46904 153.07995 3313 ft 239 kts 209°
2026-04-25 08:58 -27.48038 153.06479 3783 ft 272 kts 244°
2026-04-25 08:58 -27.48238 153.04322 4535 ft 289 kts 279°
2026-04-25 08:59 -27.47346 153.02286 5347 ft 296 kts 314°
2026-04-25 08:59 -27.45631 153.01059 6131 ft 295 kts 348°
2026-04-25 08:59 -27.43620 153.00974 6923 ft 288 kts 16°
2026-04-25 08:59 -27.41691 153.01552 7753 ft 287 kts 21°
2026-04-25 09:00 -27.39759 153.02169 8565 ft 290 kts 21°
2026-04-25 09:00 -27.37805 153.02790 9379 ft 293 kts 21°
2026-04-25 09:00 -27.35838 153.03415 10163 ft 296 kts 21°
2026-04-25 09:00 -27.33836 153.04054 10691 ft 307 kts 21°
2026-04-25 09:01 -27.31705 153.04746 10867 ft 330 kts 21°
2026-04-25 09:01 -27.29425 153.05486 11082 ft 349 kts 20°
2026-04-25 09:01 -27.27064 153.06243 11631 ft 356 kts 20°
2026-04-25 09:01 -27.24670 153.07005 12264 ft 360 kts 20°
2026-04-25 09:02 -27.22249 153.07772 12905 ft 363 kts 20°
2026-04-25 09:02 -27.19798 153.08549 13549 ft 367 kts 19°
2026-04-25 09:02 -27.17330 153.09333 14170 ft 370 kts 19°
2026-04-25 09:02 -27.14838 153.10122 14724 ft 374 kts 19°
2026-04-25 09:03 -27.12323 153.10917 15274 ft 377 kts 19°
2026-04-25 09:03 -27.09789 153.11718 15802 ft 380 kts 19°
2026-04-25 09:03 -27.07228 153.12532 16337 ft 384 kts 19°
2026-04-25 09:03 -27.04650 153.13355 16881 ft 387 kts 18°
2026-04-25 09:04 -27.02043 153.14184 17405 ft 391 kts 18°
2026-04-25 09:04 -26.99409 153.15020 17943 ft 395 kts 19°
2026-04-25 09:04 -26.96746 153.15864 18470 ft 400 kts 19°
2026-04-25 09:04 -26.94058 153.16716 18946 ft 404 kts 18°
2026-04-25 09:05 -26.91342 153.17580 19444 ft 408 kts 18°
2026-04-25 09:05 -26.88601 153.18454 19971 ft 411 kts 18°
2026-04-25 09:05 -26.85837 153.19332 20485 ft 414 kts 17°
2026-04-25 09:05 -26.83051 153.20213 20988 ft 417 kts 17°
2026-04-25 09:06 -26.80244 153.21102 21443 ft 422 kts 17°
2026-04-25 09:06 -26.77416 153.22000 21944 ft 423 kts 17°
2026-04-25 09:06 -26.74573 153.22902 22407 ft 426 kts 17°
2026-04-25 09:06 -26.71671 153.23624 22847 ft 430 kts
2026-04-25 09:07 -26.68673 153.23785 23263 ft 433 kts 357°
2026-04-25 09:07 -26.65681 153.23362 23715 ft 435 kts 347°
2026-04-25 09:07 -26.62769 153.22428 24125 ft 436 kts 341°
2026-04-25 09:07 -26.59867 153.21409 24484 ft 438 kts 342°
2026-04-25 09:08 -26.56951 153.20395 24860 ft 440 kts 342°
2026-04-25 09:08 -26.54023 153.19384 25212 ft 442 kts 342°
2026-04-25 09:08 -26.51069 153.18369 25494 ft 445 kts 342°
2026-04-25 09:08 -26.48108 153.17352 25855 ft 447 kts 341°
2026-04-25 09:09 -26.45132 153.16327 26198 ft 448 kts 342°
2026-04-25 09:09 -26.42146 153.15299 26529 ft 450 kts 341°
2026-04-25 09:09 -26.39149 153.14270 26889 ft 451 kts 342°
2026-04-25 09:09 -26.36145 153.13237 27236 ft 453 kts 341°
2026-04-25 09:10 -26.33127 153.12197 27584 ft 454 kts 341°
2026-04-25 09:10 -26.30117 153.11121 27935 ft 454 kts 337°
2026-04-25 09:10 -26.27251 153.09654 28253 ft 454 kts 328°
2026-04-25 09:10 -26.24619 153.07726 28601 ft 453 kts 321°
2026-04-25 09:11 -26.19567 153.03561 29496 ft 450 kts 321°
2026-04-25 09:11 -26.17046 153.01498 29980 ft 449 kts 321°
2026-04-25 09:11 -26.14531 152.99448 30443 ft 447 kts 322°
2026-04-25 09:12 -26.12022 152.97405 30805 ft 448 kts 321°
2026-04-25 09:12 -26.09503 152.95354 31109 ft 449 kts 321°
2026-04-25 09:12 -26.06974 152.93312 31423 ft 450 kts 321°
2026-04-25 09:12 -26.04426 152.91269 31721 ft 452 kts 321°
2026-04-25 09:13 -26.01870 152.89230 32028 ft 453 kts 321°
2026-04-25 09:13 -25.99304 152.87184 32345 ft 455 kts 321°
2026-04-25 09:13 -25.96732 152.85129 32662 ft 456 kts 320°
2026-04-25 09:13 -25.94159 152.83065 32972 ft 457 kts 320°
2026-04-25 09:14 -25.91572 152.80991 33202 ft 460 kts 319°
2026-04-25 09:14 -25.88970 152.78905 33492 ft 462 kts 318°
2026-04-25 09:14 -25.86392 152.76840 33817 ft 463 kts 318°
2026-04-25 09:14 -25.83777 152.74750 34141 ft 464 kts 318°
2026-04-25 09:15 -25.78449 152.70485 34221 ft 475 kts 318°
2026-04-25 09:15 -25.73063 152.66181 34228 ft 478 kts 318°
2026-04-25 09:16 -25.67695 152.61904 34230 ft 479 kts 318°
2026-04-25 09:16 -25.62287 152.57598 34221 ft 479 kts 318°
2026-04-25 09:17 -25.54169 152.51149 34208 ft 478 kts 317°
2026-04-25 09:18 -25.48762 152.46862 34218 ft 478 kts 318°
2026-04-25 09:18 -25.43357 152.42581 34223 ft 478 kts 318°
2026-04-25 09:19 -25.37954 152.38297 34227 ft 478 kts 317°
2026-04-25 09:19 -25.32550 152.34011 34229 ft 478 kts 318°
2026-04-25 09:20 -25.27145 152.29744 34218 ft 478 kts 318°
2026-04-25 09:20 -25.22656 152.26197 34220 ft 477 kts 317°
2026-04-25 09:21 -25.17257 152.21937 34226 ft 477 kts 317°
2026-04-25 09:21 -25.11859 152.17686 34229 ft 476 kts 317°
2026-04-25 09:22 -25.06468 152.13434 34233 ft 476 kts 317°
2026-04-25 09:22 -25.01067 152.09187 34226 ft 476 kts 318°
2026-04-25 09:23 -24.95670 152.04960 34224 ft 476 kts 318°
2026-04-25 09:23 -24.90275 152.00732 34223 ft 476 kts 318°
2026-04-25 09:24 -24.84873 151.96520 34214 ft 476 kts 318°
2026-04-25 09:24 -24.79471 151.92304 34188 ft 476 kts 318°
2026-04-25 09:25 -24.74073 151.88091 34199 ft 476 kts 318°
2026-04-25 09:25 -24.68671 151.83879 34208 ft 476 kts 318°
2026-04-25 09:26 -24.63267 151.79679 34218 ft 476 kts 318°
2026-04-25 09:26 -24.57865 151.75491 34208 ft 474 kts 318°
2026-04-25 09:27 -24.52478 151.71318 34208 ft 473 kts 318°
2026-04-25 09:27 -24.47104 151.67144 34211 ft 473 kts 318°
2026-04-25 09:28 -24.41736 151.62976 34179 ft 472 kts 317°
2026-04-25 09:28 -24.36370 151.58817 34192 ft 472 kts 317°
2026-04-25 09:29 -24.31002 151.54664 34200 ft 472 kts 318°
2026-04-25 09:29 -24.25627 151.50517 34196 ft 472 kts 317°
2026-04-25 09:30 -24.20269 151.46376 34196 ft 471 kts 317°
2026-04-25 09:30 -24.14910 151.42247 34206 ft 471 kts 317°
2026-04-25 09:31 -24.09553 151.38126 34207 ft 470 kts 317°
2026-04-25 09:31 -24.04194 151.34006 34199 ft 470 kts 317°
2026-04-25 09:32 -23.98873 151.29914 34170 ft 471 kts 317°
2026-04-25 09:32 -23.93512 151.25789 34156 ft 471 kts 317°
2026-04-25 09:33 -23.88140 151.21668 34186 ft 471 kts 317°
2026-04-25 09:33 -23.82647 151.17713 34198 ft 475 kts 321°
2026-04-25 09:34 -23.76900 151.14094 34201 ft 477 kts 323°
2026-04-25 09:34 -23.71108 151.10542 34197 ft 477 kts 323°
2026-04-25 09:35 -23.65369 151.06911 34186 ft 476 kts 322°
2026-04-25 09:35 -23.59676 151.03227 34150 ft 476 kts 321°
2026-04-25 09:36 -23.53982 150.99553 34160 ft 476 kts 321°
2026-04-25 09:36 -23.48272 150.95900 34170 ft 476 kts 322°
2026-04-25 09:37 -23.42552 150.92249 34174 ft 476 kts 322°
2026-04-25 09:37 -23.36837 150.88601 34176 ft 476 kts 322°
2026-04-25 09:38 -23.31121 150.84957 34175 ft 476 kts 322°
2026-04-25 09:38 -23.25405 150.81322 34163 ft 476 kts 322°
2026-04-25 09:39 -23.19687 150.77687 34170 ft 476 kts 321°
2026-04-25 09:39 -23.13972 150.74051 34147 ft 476 kts 321°
2026-04-25 09:40 -23.05379 150.68593 34149 ft 478 kts 321°
2026-04-25 09:40 -22.99634 150.64949 34153 ft 478 kts 321°
2026-04-25 09:41 -22.93878 150.61304 34132 ft 479 kts 321°
2026-04-25 09:41 -22.88112 150.57651 34137 ft 481 kts 321°
2026-04-25 09:42 -22.82327 150.53996 34152 ft 482 kts 321°
2026-04-25 09:42 -22.76528 150.50347 34156 ft 482 kts 321°
2026-04-25 09:43 -22.70725 150.46693 34163 ft 482 kts 321°
2026-04-25 09:43 -22.64927 150.43025 34116 ft 484 kts 319°
2026-04-25 09:44 -22.59087 150.39332 34138 ft 487 kts 319°
2026-04-25 09:44 -22.53216 150.35647 34142 ft 488 kts 319°
2026-04-25 09:45 -22.47345 150.31964 34144 ft 488 kts 319°
2026-04-25 09:45 -22.41468 150.28276 34152 ft 488 kts 319°
2026-04-25 09:46 -22.35591 150.24590 34153 ft 488 kts 319°
2026-04-25 09:46 -22.29707 150.20900 34135 ft 489 kts 319°
2026-04-25 09:47 -22.24240 150.16758 34097 ft 471 kts 307°
2026-04-25 09:47 -22.19262 150.12122 34134 ft 473 kts 308°
2026-04-25 09:48 -22.14258 150.07489 34138 ft 474 kts 308°
2026-04-25 09:48 -22.09247 150.02860 34139 ft 474 kts 308°
2026-04-25 09:49 -22.04241 149.98231 34143 ft 474 kts 308°
2026-04-25 09:49 -21.99265 149.93632 34146 ft 474 kts 308°
2026-04-25 09:50 -21.94258 149.89004 34130 ft 474 kts 308°
2026-04-25 09:50 -21.89247 149.84383 34120 ft 474 kts 308°
2026-04-25 09:51 -21.84235 149.79766 34133 ft 474 kts 308°
2026-04-25 09:51 -21.79218 149.75156 34138 ft 474 kts 309°
2026-04-25 09:52 -21.74202 149.70550 34144 ft 474 kts 309°
2026-04-25 09:52 -21.69185 149.65948 34146 ft 474 kts 309°
2026-04-25 09:53 -21.64162 149.61343 34145 ft 474 kts 309°
2026-04-25 09:53 -21.59139 149.56752 34149 ft 473 kts 309°
2026-04-25 09:54 -21.54123 149.52184 34159 ft 472 kts 309°
2026-04-25 09:54 -21.49118 149.47624 34160 ft 471 kts 309°
2026-04-25 09:55 -21.44122 149.43069 34160 ft 471 kts 309°
2026-04-25 09:55 -21.39126 149.38526 34151 ft 471 kts 309°
2026-04-25 09:56 -21.34131 149.33986 34153 ft 470 kts 309°
2026-04-25 09:56 -21.29138 149.29453 34124 ft 470 kts 309°
2026-04-25 09:57 -21.24145 149.24935 34144 ft 469 kts 308°
2026-04-25 09:57 -21.19167 149.20430 34146 ft 468 kts 308°
2026-04-25 09:58 -21.16820 149.18073 34142 ft 456 kts 301°
2026-04-25 09:58 -21.14791 149.15505 34135 ft 450 kts 298°
2026-04-25 09:58 -21.10804 149.10332 34139 ft 450 kts 298°
2026-04-25 09:59 -21.06804 149.05166 34134 ft 450 kts 298°
2026-04-25 09:59 -21.02801 149.00012 34129 ft 450 kts 298°
2026-04-25 10:00 -20.98818 148.94891 34120 ft 450 kts 298°
2026-04-25 10:00 -20.94818 148.89750 34130 ft 449 kts 298°
2026-04-25 10:01 -20.90822 148.84612 34105 ft 449 kts 298°
2026-04-25 10:01 -20.87473 148.80313 34133 ft 449 kts 298°
2026-04-25 10:02 -20.83472 148.75185 34113 ft 449 kts 298°
2026-04-25 10:02 -20.79482 148.70065 34131 ft 448 kts 298°
2026-04-25 10:03 -20.75486 148.64951 34142 ft 448 kts 298°
2026-04-25 10:03 -20.71494 148.59842 34150 ft 448 kts 298°
2026-04-25 10:04 -20.67497 148.54743 34151 ft 448 kts 298°
2026-04-25 10:04 -20.63509 148.49642 34155 ft 448 kts 298°
2026-04-25 10:05 -20.59513 148.44536 34135 ft 448 kts 298°
2026-04-25 10:05 -20.55527 148.39476 34147 ft 448 kts 298°
2026-04-25 10:06 -20.51515 148.34400 34131 ft 447 kts 299°
2026-04-25 10:06 -20.47509 148.29322 34142 ft 447 kts 299°
2026-04-25 10:07 -20.43505 148.24246 34147 ft 447 kts 299°
2026-04-25 10:07 -20.39494 148.19176 34138 ft 447 kts 299°
2026-04-25 10:08 -20.35488 148.14113 33747 ft 447 kts 299°
2026-04-25 10:08 -20.33462 148.11542 32420 ft 460 kts 299°
2026-04-25 10:08 -20.31382 148.08896 31280 ft 470 kts 300°
2026-04-25 10:09 -20.29267 148.06220 30375 ft 474 kts 300°
2026-04-25 10:09 -20.27124 148.03519 29410 ft 477 kts 301°
2026-04-25 10:09 -20.25000 148.00863 28930 ft 468 kts 301°
2026-04-25 10:09 -20.22898 147.98239 28262 ft 463 kts 302°
2026-04-25 10:10 -20.20818 147.95639 27625 ft 459 kts 302°
2026-04-25 10:10 -20.18764 147.93061 26997 ft 454 kts 302°
2026-04-25 10:10 -20.16732 147.90507 26413 ft 449 kts 302°
2026-04-25 10:10 -20.14723 147.87986 25815 ft 445 kts 302°
2026-04-25 10:11 -20.12725 147.85484 25249 ft 442 kts 303°
2026-04-25 10:11 -20.10740 147.83005 24679 ft 438 kts 303°
2026-04-25 10:11 -20.08766 147.80546 24115 ft 436 kts 303°
2026-04-25 10:11 -20.06801 147.78104 23532 ft 433 kts 304°
2026-04-25 10:12 -20.04848 147.75682 22957 ft 428 kts 304°
2026-04-25 10:12 -20.02922 147.73293 22452 ft 423 kts 304°
2026-04-25 10:12 -19.99137 147.68590 21465 ft 414 kts 304°
2026-04-25 10:13 -19.97273 147.66275 20989 ft 411 kts 305°
2026-04-25 10:13 -19.95421 147.63971 20511 ft 408 kts 305°
2026-04-25 10:13 -19.93585 147.61684 20047 ft 405 kts 305°
2026-04-25 10:13 -19.91757 147.59409 19566 ft 403 kts 305°
2026-04-25 10:14 -19.89940 147.57153 19093 ft 401 kts 306°
2026-04-25 10:14 -19.88134 147.54912 18608 ft 398 kts 306°
2026-04-25 10:14 -19.86340 147.52683 18079 ft 395 kts 306°
2026-04-25 10:14 -19.84623 147.50439 17723 ft 384 kts 299°
2026-04-25 10:15 -19.83397 147.48010 17635 ft 365 kts 292°
2026-04-25 10:15 -19.82305 147.45636 17549 ft 351 kts 291°
2026-04-25 10:15 -19.81243 147.43305 17471 ft 353 kts 291°
2026-04-25 10:15 -19.80179 147.40950 17397 ft 354 kts 291°
2026-04-25 10:16 -19.79115 147.38590 17314 ft 354 kts 291°
2026-04-25 10:16 -19.78050 147.36233 17220 ft 355 kts 291°
2026-04-25 10:16 -19.76980 147.33873 17064 ft 355 kts 291°
2026-04-25 10:16 -19.75906 147.31513 16595 ft 354 kts 291°
2026-04-25 10:17 -19.74833 147.29163 16083 ft 353 kts 291°
2026-04-25 10:17 -19.73760 147.26817 15573 ft 353 kts 292°
2026-04-25 10:17 -19.72687 147.24471 15053 ft 353 kts 292°
2026-04-25 10:17 -19.71615 147.22118 14535 ft 354 kts 292°
2026-04-25 10:18 -19.70545 147.19764 14018 ft 355 kts 292°
2026-04-25 10:18 -19.69485 147.17434 13450 ft 356 kts 292°
2026-04-25 10:18 -19.68411 147.15073 12919 ft 355 kts 293°
2026-04-25 10:18 -19.67339 147.12716 12388 ft 354 kts 293°
2026-04-25 10:19 -19.66268 147.10364 11846 ft 354 kts 294°
2026-04-25 10:19 -19.65192 147.08008 11320 ft 355 kts 294°
2026-04-25 10:19 -19.64117 147.05655 10789 ft 355 kts 294°
2026-04-25 10:19 -19.63051 147.03325 10617 ft 344 kts 294°
2026-04-25 10:20 -19.62026 147.01084 10566 ft 330 kts 294°
2026-04-25 10:20 -19.61022 146.98888 10104 ft 331 kts 295°
2026-04-25 10:20 -19.60030 146.96720 9597 ft 322 kts 295°
2026-04-25 10:20 -19.59064 146.94610 9084 ft 314 kts 294°
2026-04-25 10:21 -19.58121 146.92551 8578 ft 307 kts 294°
2026-04-25 10:21 -19.57197 146.90532 8085 ft 302 kts 294°
2026-04-25 10:21 -19.56288 146.88548 7597 ft 296 kts 294°
2026-04-25 10:21 -19.55396 146.86604 7116 ft 291 kts 294°
2026-04-25 10:22 -19.54521 146.84693 6639 ft 286 kts 293°
2026-04-25 10:22 -19.53660 146.82813 6143 ft 281 kts 294°
2026-04-25 10:22 -19.52809 146.80958 5641 ft 278 kts 294°
2026-04-25 10:22 -19.51969 146.79128 5147 ft 274 kts 294°
2026-04-25 10:23 -19.51139 146.77319 4650 ft 271 kts 294°
2026-04-25 10:23 -19.50318 146.75531 4156 ft 268 kts 294°
2026-04-25 10:23 -19.49507 146.73765 3661 ft 265 kts 294°
2026-04-25 10:23 -19.48703 146.72022 3177 ft 261 kts 296°
2026-04-25 10:24 -19.47663 146.70532 3035 ft 243 kts 316°
2026-04-25 10:24 -19.46356 146.69503 3048 ft 225 kts 333°
2026-04-25 10:24 -19.45007 146.68932 3050 ft 194 kts 347°
2026-04-25 10:24 -19.43719 146.68726 3028 ft 183 kts
2026-04-25 10:25 -19.42494 146.68807 3044 ft 167 kts 14°
2026-04-25 10:25 -19.41400 146.69119 3040 ft 160 kts 26°
2026-04-25 10:25 -19.40391 146.69587 2992 ft 157 kts 30°
2026-04-25 10:25 -19.39397 146.70056 2843 ft 156 kts 30°
2026-04-25 10:26 -19.38411 146.70522 2662 ft 154 kts 29°
2026-04-25 10:26 -19.37435 146.70985 2467 ft 154 kts 28°
2026-04-25 10:26 -19.36458 146.71447 2273 ft 153 kts 29°
2026-04-25 10:26 -19.35492 146.71903 2072 ft 151 kts 27°
2026-04-25 10:27 -19.34535 146.72356 1880 ft 149 kts 27°
2026-04-25 10:27 -19.33600 146.72798 1688 ft 146 kts 27°
2026-04-25 10:27 -19.32680 146.73233 1492 ft 144 kts 27°
2026-04-25 10:27 -19.31769 146.73664 1306 ft 144 kts 27°
2026-04-25 10:28 -19.30857 146.74095 1119 ft 143 kts 26°
2026-04-25 10:28 -19.29950 146.74524 934 ft 142 kts 27°
2026-04-25 10:28 -19.29044 146.74954 745 ft 143 kts 27°
2026-04-25 10:28 -19.28130 146.75389 540 ft 146 kts 25°
2026-04-25 10:29 -19.27208 146.75818 360 ft 145 kts 25°
2026-04-25 10:29 -19.26288 146.76256 166 ft 145 kts 26°
2026-04-25 10:29 -19.25374 146.76688 25 ft 135 kts 25°
2026-04-25 10:29 -19.24725 146.76993 25 ft 58 kts 24°
2026-04-25 10:30 -19.24401 146.77151 23 ft 33 kts 26°
2026-04-25 10:30 -19.24360 146.77235 24 ft 14 kts 86°
2026-04-25 10:30 -19.24415 146.77344 22 ft 13 kts 154°
2026-04-25 10:30 -19.24511 146.77349 22 ft 15 kts 201°
2026-04-25 10:31 -19.24603 146.77295 22 ft 16 kts 208°
2026-04-25 10:31 -19.24711 146.77237 22 ft 19 kts 206°
2026-04-25 10:31 -19.24833 146.77172 23 ft 20 kts 207°
2026-04-25 10:31 -19.24961 146.77102 22 ft 22 kts 207°
2026-04-25 10:32 -19.25100 146.77023 22 ft 24 kts 207°
2026-04-25 10:32 -19.25250 146.76940 23 ft 24 kts 208°
2026-04-25 10:32 -19.25370 146.76874 22 ft 13 kts 207°
2026-04-25 10:32 -19.25459 146.76825 22 ft 16 kts 207°
2026-04-25 10:33 -19.25560 146.76773 22 ft 15 kts 196°
2026-04-25 10:33 -19.25643 146.76836 23 ft 16 kts 120°
2026-04-25 10:33 -19.25638 146.76930 22 ft 12 kts 110°
2026-04-25 10:33 -19.25651 146.76975 22 ft 1 kts 105°
2026-04-25 10:34 -19.25652 146.76976 22 ft 0 kts 105°